Location: Berg
(48.4333°N, 13.9167°E)
Time: 08:50:10
(UTC+00:00)

Cosmos 1766 - Pass Details

Date: 18 September 2020
Orbit: 522 x 544 km, 82.5° (Epoch: 24 October)

Event Time Altitude Azimuth Distance (km) Brightness Sun altitude
Exits shadow 19:34:07 38° 23° (NNE) 834 4.2 -23.5°
Drops below altitude 10° 19:36:39 10° 13° (NNE) 1,802 6.2 -23.8°
Sets 19:38:50 0° 12° (NNE) 2,702 7.1 -24.1°
